Regional Weather Roundup
Issued by NWS

Home | Current Version | Previous Version | Text Only | Print | Product List | Glossary On
Versions: 1 2 3 4 5 6 7 8 9 10 11 12 13 14 15 16 17 18 19 20 21 22 23 24 25 26 27 28 29 30 31 32 33 34 35 36 37 38 39 40 41 42 43 44 45 46 47 48 49 50
000
ASUS45 KSLC 290810
RWRUT

UTAH REGIONAL WEATHER ROUNDUP
NATIONAL WEATHER SERVICE SALT LAKE CITY UT
100 AM MST MON DEC 29 2014

UTZ001>011-023>025-290900-

NORTHERN UTAH

CITY           SKY/WX    TMP DP  RH WIND       PRES   REMARKS
BRIGHAM CITY   CLOUDY    28  25  90 CALM      30.03F
HILL AFB       LGT SNOW  25  25 100 E5        30.00F FOG     WCI  19
LOGAN          LGT SNOW  24  22  91 E6        30.02S VSB 1   WCI  17
OGDEN          LGT SNOW  26  25  96 SE5       30.01F VSB 3/4 WCI  20
PROVO AIRPORT  CLOUDY    25  23  93 S6        30.02F WCI  18
SALT LAKE CITY CLOUDY    28  25  88 SE5       30.01F WCI  23
VERNAL         CLOUDY    18  12  77 CALM      29.99F
WENDOVER       MOCLDY    25  23  93 E3        30.03F
HEBER CITY     FLURRIES  21  19  93 CALM      29.97F
WEST JORDAN    CLOUDY    25  25 100 CALM      30.01F

$$

UTZ012>022-026-027-290900-

SOUTHERN/CENTRAL UTAH

CITY           SKY/WX    TMP DP  RH WIND       PRES   REMARKS
BLANDING       CLEAR     15  11  81 CALM      30.06F
BRYCE CANYON   CLEAR      2  -2  83 CALM      29.95F
CEDAR CITY     CLEAR     16   6  65 NE7       30.00F WCI   6
DELTA          CLOUDY    26  24  93 E3        30.02F
MILFORD        CLEAR     12  10  92 S6        30.02F WCI   3
MOAB/CYNLANDS  PTCLDY    18  17  96 SW5       30.00F WCI  11
PRICE          MOCLDY    16  11  80 NE3       29.96S
ST GEORGE      CLOUDY    23   5  46 CALM      30.13F
KANAB          CLEAR     19  12  73 N3        30.09F

$$

REGIONAL REPORTS     COLORADO/ARIZONA

CITY           SKY/WX    TMP DP  RH WIND       PRES   REMARKS
CRAIG, CO      LGT SNOW  17  14  88 CALM      29.97F FOG
GRAND JUNCTION LGT SNOW  22  21  96 CALM      30.01F VSB 1
RIFLE          LGT SNOW  20  17  88 CALM      30.00F FOG
MONTROSE       PTCLDY    18  12  77 SW7       29.99F WCI   9
CORTEZ         CLEAR      7   3  84 CALM      30.01F
PAGE, AZ       CLEAR     29  10  45 SW5       30.02S WCI  24
GRAND CANYON   PTCLDY    11   5  77 NE5       30.06F WCI   3
KINGMAN        CLEAR     26  13  57 SE5       30.10F WCI  20
FLAGSTAFF      CLEAR     20   9  62 SW6       30.05F WCI  12

$$

REGIONAL REPORTS    NEVADA/IDAHO/WYOMING

CITY           SKY/WX    TMP DP  RH WIND       PRES   REMARKS
LAS VEGAS, NV  CLEAR     36  13  38 SW7       30.07F WCI  30
ELY            CLOUDY    23  19  85 CALM      29.99S
ELKO           CLOUDY    19  15  84 CALM      30.05S
POCATELLO, ID  CLOUDY    24  22  91 CALM      30.04S
BURLEY         CLOUDY    25  22  88 W6        30.03F WCI  18
EVANSTON, WY   FOG       11   7  84 E6        29.92S VSB 1/4 WCI   1
ROCK SPRINGS   PTCLDY    11   7  84 NE3       29.95S
KEMMERER       PTCLDY     3   1  92 NW3       29.93S

$$


USA.gov is the U.S. government's official web portal to all federal, state and local government web resources and services.